(338185) = 2002 RY182

Discovered at Palomar on 2002-09-11 by NEAT.

Orbit

Orbit type: Main Belt

Note: WebGL enabled browser required.

epoch2024-03-31.0
epoch JD2460400.5
perihelion date2022-08-05.17058
perihelion JD2459796.67058
argument of perihelion (°)157.44130
ascending node (°)249.27130
inclination (°)10.92133
eccentricity0.1778399
perihelion distance (AU)2.3578385
Tisserand w.r.t. Jupiter3.2
ΔV w.r.t. Earth (km/sec)10.2
semimajor axis (AU)2.8678581
mean anomaly (°)122.54112
mean daily motion (°/day)0.20294000
aphelion distance (AU)3.378
period (years)4.86
P-vector [x]0.67915989
P-vector [y]0.64120153
P-vector [z]0.35721485
Q-vector [x]-0.71228028
Q-vector [y]0.69324468
Q-vector [z]0.10985727
absolute magnitude15.82
phase slope0.15
uncertainty0
referenceE2024-GF4
observations used495
oppositions16
arc length (days)7882
first opposition used2002
last opposition used2024
residual rms (arc-secs)0.74
perturbers coarse indicatorM-v
perturbers precise indicator003Ek
first observation date used2002-09-11.0
last observation date used2024-04-10.0
computer nameMPCLINUX
JD of orbit computation2456731.493213
perihelion JD uncertainty (days)1.4152E-04
argument of perihelion uncertainty (°)6.0143E-05
ascending node uncertainty (°)4.7706E-05
inclination uncertainty (°)1.0220E-05
eccentricity uncertainty 1.1158E-07
perihelion distance uncertainty (AU)3.1150E-07
Minimum Orbit Intersection Distances (in AU)
for orbit epoch: 2460400.5, reference: E2024-GF4
Mercury2.04228
Venus1.63993
Earth1.37255
Mars0.8651
Jupiter2.01112
Saturn6.45716
Uranus15.3125
Neptune27.2485

Observations

494 total observations over interval: 2002 09 11.44527 – 2023 02 09.210004
These data are available for download (format description).

Date (UT) J2000 RA J2000 Dec Magn Location Ref
2002 09 11.44527 23 41 00.76 +16 38 58.2 18.7   644 – Palomar Mountain/NEAT MPS 61810
2002 09 11.45573 23 41 00.30 +16 38 55.2 18.0   644 – Palomar Mountain/NEAT MPS 61810
2002 09 11.46617 23 40 59.78 +16 38 53.0 18.7   644 – Palomar Mountain/NEAT MPS 61810
2002 09 14.28528 23 38 52.14 +16 26 25.0 18.5 R 699 – Lowell Observatory-LONEOS MPS 61810
2002 09 14.30031 23 38 51.47 +16 26 20.8   699 – Lowell Observatory-LONEOS MPS 61810
2002 09 14.31527 23 38 50.77 +16 26 17.0   699 – Lowell Observatory-LONEOS MPS 61810
2002 09 14.33023 23 38 50.01 +16 26 12.3   699 – Lowell Observatory-LONEOS MPS 61810
2002 10 04.11075 23 24 11.29 +14 12 44.4 19.1   644 – Palomar Mountain/NEAT MPS 82991
2002 10 04.12123 23 24 10.88 +14 12 39.1 19.1   644 – Palomar Mountain/NEAT MPS 82991
2002 10 04.13169 23 24 10.46 +14 12 34.1 19.1   644 – Palomar Mountain/NEAT MPS 82991
2002 10 04.28580 23 24 04.24 +14 11 19.2 18.4 R 699 – Lowell Observatory-LONEOS MPS 63608
2002 10 04.30327 23 24 03.50 +14 11 09.9   699 – Lowell Observatory-LONEOS MPS 63608
2002 10 04.32079 23 24 02.74 +14 11 01.3   699 – Lowell Observatory-LONEOS MPS 63608
2002 10 04.33830 23 24 02.00 +14 10 53.0   699 – Lowell Observatory-LONEOS MPS 63608
2002 10 06.25241 23 22 49.93 +13 54 55.6 18.7   704 – Lincoln Laboratory ETS, New Mexico MPS 63608
2002 10 06.26799 23 22 49.35 +13 54 48.0 18.9   704 – Lincoln Laboratory ETS, New Mexico MPS 63608
2002 10 06.28350 23 22 48.77 +13 54 40.0 19.1   704 – Lincoln Laboratory ETS, New Mexico MPS 63608
2002 10 06.29900 23 22 48.18 +13 54 32.0 19.4   704 – Lincoln Laboratory ETS, New Mexico MPS 63608
2002 10 06.31450 23 22 47.62 +13 54 24.0 20.0   704 – Lincoln Laboratory ETS, New Mexico MPS 63608
2002 10 09.26412 23 21 04.32 +13 29 21.9 19.2   704 – Lincoln Laboratory ETS, New Mexico MPS 67987
2002 10 09.27974 23 21 03.77 +13 29 13.8 19.1   704 – Lincoln Laboratory ETS, New Mexico MPS 67987
2002 10 09.29522 23 21 03.21 +13 29 06.6 19.5   704 – Lincoln Laboratory ETS, New Mexico MPS 67987
2002 10 09.31105 23 21 02.62 +13 28 58.3 19.4   704 – Lincoln Laboratory ETS, New Mexico MPS 67987
2004 01 18.28518 09 02 04.08 +01 45 35.8 20.2 V 703 – Catalina Sky Survey MPS 98767
2004 01 18.29779 09 02 03.40 +01 45 34.5 19.8 V 703 – Catalina Sky Survey MPS 98767
2004 01 18.31041 09 02 02.78 +01 45 34.5 19.6 V 703 – Catalina Sky Survey MPS 98767
2004 01 18.32296 09 02 02.06 +01 45 33.7 18.7 V 703 – Catalina Sky Survey MPS 98767
2004 01 27.23764 08 54 14.88 +01 50 53.9 19.4 R 699 – Lowell Observatory-LONEOS MPS 98767
2004 01 27.25592 08 54 13.76 +01 50 56.0   699 – Lowell Observatory-LONEOS MPS 98767
2004 01 27.27671 08 54 12.63 +01 50 57.1   699 – Lowell Observatory-LONEOS MPS 98767
2004 01 27.29504 08 54 11.70 +01 50 58.8   699 – Lowell Observatory-LONEOS MPS 98767
2004 01 29.27410 08 52 24.43 +01 53 59.1 19.4   704 – Lincoln Laboratory ETS, New Mexico MPS 98767
2004 01 29.28635 08 52 23.71 +01 54 00.2 19.5   704 – Lincoln Laboratory ETS, New Mexico MPS 98767
2004 01 29.29843 08 52 22.98 +01 54 02.3 19.3   704 – Lincoln Laboratory ETS, New Mexico MPS 98767
2004 01 29.31063 08 52 22.41 +01 54 02.9 19.7   704 – Lincoln Laboratory ETS, New Mexico MPS 98767
2004 01 29.32278 08 52 21.78 +01 54 04.6 20.2   704 – Lincoln Laboratory ETS, New Mexico MPS 98767
2004 02 19.23119 08 34 47.56 +02 56 10.2 19.6   704 – Lincoln Laboratory ETS, New Mexico MPS 100044
2004 02 19.27441 08 34 45.71 +02 56 19.0 20.0   704 – Lincoln Laboratory ETS, New Mexico MPS 100044
2004 02 19.28952 08 34 45.11 +02 56 23.7 20.2   704 – Lincoln Laboratory ETS, New Mexico MPS 100044
2007 09 15.40168 01 06 12.87 +23 08 13.8 18.8 R 699 – Lowell Observatory-LONEOS MPS 217736
2007 09 15.42459 01 06 12.20 +23 08 11.0   699 – Lowell Observatory-LONEOS MPS 217736
2007 09 15.44746 01 06 11.43 +23 08 08.6   699 – Lowell Observatory-LONEOS MPS 217736
2007 09 15.47035 01 06 10.78 +23 08 07.3   699 – Lowell Observatory-LONEOS MPS 217736
2007 09 20.26735 01 03 38.59 +22 57 29.9 19.2 V 703 – Catalina Sky Survey MPS 217736
2007 09 20.27444 01 03 38.37 +22 57 29.3 19.2 V 703 – Catalina Sky Survey MPS 217736
2007 09 20.28155 01 03 38.05 +22 57 28.0 19.5 V 703 – Catalina Sky Survey MPS 217736
2007 09 20.28862 01 03 37.80 +22 57 26.6 19.2 V 703 – Catalina Sky Survey MPS 217736
2007 10 08.30404 00 51 02.16 +21 22 43.4 18.9 V 703 – Catalina Sky Survey MPS 218533
2007 10 08.31156 00 51 01.80 +21 22 40.0 18.8 V 703 – Catalina Sky Survey MPS 218533
2007 10 08.31907 00 51 01.44 +21 22 36.8 18.7 V 703 – Catalina Sky Survey MPS 218533
2007 10 08.32668 00 51 01.00 +21 22 33.7 19.0 V 703 – Catalina Sky Survey MPS 218533
2007 10 10.22483 00 49 34.17 +21 07 58.8 18.7 r 699 – Lowell Observatory-LONEOS MPS 218533
2007 10 10.24859 00 49 33.00 +21 07 46.8   699 – Lowell Observatory-LONEOS MPS 218533
2007 10 10.27238 00 49 31.95 +21 07 36.4   699 – Lowell Observatory-LONEOS MPS 218533
2007 10 10.29616 00 49 30.77 +21 07 24.6   699 – Lowell Observatory-LONEOS MPS 218533
2007 10 14.24576 00 46 31.69 +20 34 49.2 18.6 V 703 – Catalina Sky Survey MPS 220324
2007 10 14.25554 00 46 31.22 +20 34 44.7 18.8 V 703 – Catalina Sky Survey MPS 220324
2007 10 14.26528 00 46 30.79 +20 34 39.3 18.6 V 703 – Catalina Sky Survey MPS 220324
2007 10 22.25026 00 40 52.99 +19 21 47.8 18.3   704 – Lincoln Laboratory ETS, New Mexico MPS 222437
2007 10 22.27381 00 40 52.01 +19 21 32.5 19.0   704 – Lincoln Laboratory ETS, New Mexico MPS 222437
2007 10 22.28544 00 40 51.56 +19 21 27.7 18.9   704 – Lincoln Laboratory ETS, New Mexico MPS 222437
2007 10 22.29704 00 40 51.05 +19 21 21.2 19.2   704 – Lincoln Laboratory ETS, New Mexico MPS 222437
2007 10 30.20264 00 36 15.98 +18 04 24.6 18.9 V 703 – Catalina Sky Survey MPS 223362
2007 10 30.21009 00 36 15.76 +18 04 19.8 18.7 V 703 – Catalina Sky Survey MPS 223362
2007 10 30.21689 00 36 15.58 +18 04 16.3 18.9 V 703 – Catalina Sky Survey MPS 223362
2007 10 30.22337 00 36 15.30 +18 04 12.0 18.9 V 703 – Catalina Sky Survey MPS 223362
2007 11 03.24821 00 34 25.80 +17 24 56.1 19.2   704 – Lincoln Laboratory ETS, New Mexico MPS 224701
2007 11 03.26055 00 34 25.51 +17 24 48.6 19.4   704 – Lincoln Laboratory ETS, New Mexico MPS 224701
2007 11 03.27275 00 34 25.22 +17 24 40.5 19.6   704 – Lincoln Laboratory ETS, New Mexico MPS 224701
2007 11 03.28490 00 34 24.79 +17 24 35.3 18.8   704 – Lincoln Laboratory ETS, New Mexico MPS 224701
2007 11 03.29699 00 34 24.40 +17 24 27.6 18.8   704 – Lincoln Laboratory ETS, New Mexico MPS 224701
2007 11 07.14355 00 33 02.87 +16 47 41.3 19.7 r 699 – Lowell Observatory-LONEOS MPS 286866
2007 11 07.16642 00 33 02.37 +16 47 28.8 19.0 r 699 – Lowell Observatory-LONEOS MPS 286866
2007 11 07.18929 00 33 01.88 +16 47 16.3 19.1 r 699 – Lowell Observatory-LONEOS MPS 286866
2007 11 07.21216 00 33 01.20 +16 47 03.0 18.6 r 699 – Lowell Observatory-LONEOS MPS 286866
2007 11 09.19253 00 32 28.60 +16 28 38.2 19.0   704 – Lincoln Laboratory ETS, New Mexico MPS 224701
2007 11 09.20480 00 32 28.32 +16 28 30.7 19.0   704 – Lincoln Laboratory ETS, New Mexico MPS 224701
2007 11 09.21693 00 32 28.18 +16 28 24.0 19.3   704 – Lincoln Laboratory ETS, New Mexico MPS 224701
2007 11 09.22920 00 32 27.95 +16 28 17.1 19.6   704 – Lincoln Laboratory ETS, New Mexico MPS 224701
2007 11 09.24134 00 32 27.80 +16 28 10.7 19.5   704 – Lincoln Laboratory ETS, New Mexico MPS 224701
2007 11 09.28003 00 32 27.16 +16 27 50.5 19.3 V 703 – Catalina Sky Survey MPS 224701
2007 11 09.28651 00 32 27.02 +16 27 46.9 19.0 V 703 – Catalina Sky Survey MPS 224701
2007 11 09.29301 00 32 26.88 +16 27 42.1 19.0 V 703 – Catalina Sky Survey MPS 224701
2007 11 09.29953 00 32 26.80 +16 27 39.1 18.9 V 703 – Catalina Sky Survey MPS 224701
2007 11 11.25849 00 32 01.10 +16 09 48.4 19.4 r 699 – Lowell Observatory-LONEOS MPS 226755
2007 11 11.28042 00 32 00.80 +16 09 38.9 19.4 r 699 – Lowell Observatory-LONEOS MPS 226755
2007 11 11.30236 00 32 00.52 +16 09 25.8 19.6 r 699 – Lowell Observatory-LONEOS MPS 226755
2007 11 11.32430 00 32 00.18 +16 09 14.3 19.7 r 699 – Lowell Observatory-LONEOS MPS 226755
2007 12 13.13210 00 40 08.15 +12 52 02.5 20.2   704 – Lincoln Laboratory ETS, New Mexico MPS 243521
2007 12 13.14480 00 40 08.52 +12 51 57.9 20.4   704 – Lincoln Laboratory ETS, New Mexico MPS 243521
